BEIDOU 3 (C01)

Last updated on Aug. 8, 2020, 5:33 a.m. UTC

1 36287U 10001A   20220.52271632 -.00000290  00000-0  00000-0 0  9994
2 36287   1.4816  29.5083 0005636 116.5381 139.0723  1.00272096 38722
UTC
Height (km)
Latitude
Longitude
Inclination
Orbital Period
UTC large
Height (km)
Speed (km/s)
/
Latitude / Longitude
Inclination (degrees)
Orbital Period (minutes)
Azimuth
Elevation
Range (km)
Doppler Factor
iOS Compass Heading
iOS Angle

Next 30 passes for location: Hong Kong

Rise time Rise Azimuth (degrees) Set time Set Azimuth (degrees) Duration Max altitude (degrees)

No matching passes for this satellites